ALSAT 1B

Last updated on Thu Oct 30 2025 00:02:31 GMT+0000 (Coordinated Universal Time)

1 41785U 16059C 25302.48637083 .00000671 00000+0 11443-3 0 9996 2 41785 97.7847 316.1798 0008004 244.2767 115.7615 14.71995923486631
UTC large
Height (km)
Speed (km/s)
/
Latitude / Longitude
Inclination (degrees)
Orbital Period (minutes)
Azimuth
Elevation
Range (km)
Doppler Factor

Next 0 passes for location: London (51.5072 / 0.1276)

Sorry there are no passes over London.